Location: Pardubice
(50.0330°N, 15.7830°E)
Time: 08:58:45
(UTC+02:00)

ISS - Visible Passes

Search period start: 20 October 2021 00:00
Search period end: 30 October 2021 00:00
Orbit: 417 x 423 km, 51.6° (Epoch: 20 October)

Date Brightness Start Highest point End Pass type
(mag) Time Alt. Az. Time Alt. Az. Time Alt. Az.
23 Oct -1.4 06:16:10 10° SSW 06:18:49 22° SE 06:21:30 10° E visible
24 Oct -1.0 05:29:55 10° S 05:31:54 15° SE 05:33:56 10° E visible
25 Oct -2.8 06:18:17 12° SW 06:21:13 45° SSE 06:24:27 10° ENE visible
26 Oct -2.4 05:33:31 29° S 05:34:14 32° SSE 05:37:18 10° E visible
27 Oct -1.0 04:48:39 18° ESE 04:48:39 18° ESE 04:50:03 10° E visible
27 Oct -3.8 06:21:39 20° WSW 06:23:51 83° SSE 06:27:14 10° ENE visible
28 Oct -3.6 05:36:45 63° S 05:36:51 64° SSE 05:40:12 10° ENE visible
29 Oct -1.2 04:51:47 22° E 04:51:47 22° E 04:53:11 10° ENE visible
29 Oct -3.7 06:24:47 23° W 06:26:43 70° N 06:30:05 10° ENE visible
